Location: Keeble Observatory
(37.7625°N, 77.4755°W)
Time: 21:54:37
(UTC-05:00)

Daily predictions for brighter satellites

Satellite Brightness Start Highest point End
(mag) Time Altitude Azimuth Time Altitude Azimuth Time Altitude Azimuth
Hubble Space Telescope 3.7 17:14:25 10° SW 17:16:01 12° SSW 17:17:36 10° S
CSL-04 Rocket 4.3 17:10:51 10° S 17:16:13 63° WSW 17:21:42 10° NNW
Tiangong 1 2.7 17:20:12 10° SSW 17:22:38 22° SE 17:25:04 10° E
SPOT 3 Rocket 3.6 17:19:07 10° SSE 17:24:11 57° ENE 17:29:16 10° N
USA 234 3.7 17:18:16 10° NE 17:24:42 61° NW 17:31:06 10° WSW
Okean 1 4.3 17:22:33 10° SSE 17:26:00 28° E 17:29:28 10° NNE
Meteor 1-18 Rocket 4.5 17:21:34 10° SSE 17:26:55 48° E 17:32:25 10° NNE
YAOGAN 1 2.7 17:23:03 10° SSE 17:27:13 50° ENE 17:31:25 10° N
Cosmos 1536 3.7 17:25:12 10° NNW 17:29:11 54° W 17:33:09 10° S
Cosmos 1844 Rocket 2.9 17:24:15 10° SSW 17:29:48 73° WNW 17:35:27 10° NNE
Cosmos 1812 3.1 17:26:39 10° SSE 17:30:19 44° E 17:34:00 10° NNE
BREEZE M DEB (TANK) 4.0 17:19:19 10° SW 17:31:58 52° SE 17:35:33 11° ENE
EP 2 4.2 17:33:25 10° SSW 17:36:01 68° ESE 17:38:30 11° NE
AQUARIUS 4.1 17:31:57 10° SSE 17:36:24 72° ENE 17:40:53 10° N
USA 32 4.0 17:31:39 10° S 17:36:52 82° E 17:42:06 10° N
COSMOS 2487 4.2 17:35:05 10° NNE 17:37:02 14° ENE 17:38:37 11° E
NOSS 3-3 (A) 4.1 17:31:03 10° SSW 17:37:03 59° ESE 17:43:27 10° NE
NOSS 3-3 (C) 4.1 17:31:10 10° SSW 17:37:09 58° ESE 17:43:33 10° NE
Meteor 2-19 Rocket 4.4 17:33:12 10° N 17:39:16 75° E 17:45:17 10° SSE
ISS -1.3 17:36:42 10° W 17:39:17 21° NNW 17:41:53 10° NNE
SL-8 Rocket 4.0 17:34:38 10° N 17:40:50 87° E 17:46:59 10° S
Cosmos 1346 Rocket 3.7 17:38:39 10° SSE 17:41:59 27° E 17:45:17 10° NE
IDEFIX/ARIANE 42P 2.5 17:39:29 10° SSE 17:44:42 85° ENE 17:49:54 10° NNW
CORIOLIS 4.1 17:39:44 10° SSE 17:45:08 77° ENE 17:50:32 10° N
Cosmos 1844 3.9 17:41:01 10° SSW 17:46:34 72° WNW 17:52:07 10° NNE
ATLAS 2AS CENTAUR R/B 3.0 17:39:37 10° NNW 17:47:43 74° NE 17:55:12 10° SE
ASTRO F (AKARI) 4.2 17:44:38 10° NNE 17:47:44 64° ESE 17:50:52 10° S
Cosmos 494 Rocket 4.0 17:42:46 10° N 17:47:58 61° ENE 17:53:09 10° SSE
Cosmos 2297 4.5 17:43:59 10° SSE 17:48:55 32° ESE 17:53:05 13° NE
Cosmos 1455 Rocket 3.0 17:45:29 10° N 17:49:53 70° E 17:54:17 10° SSE
SKYMED 2 4.0 17:46:41 10° NNE 17:50:47 40° E 17:54:51 10° SSE
BREEZE-M DEB (TANK) 4.0 17:45:33 10° WNW 17:51:30 57° SW 17:55:02 10° SE
Cosmos 2366 rocket 4.0 17:45:43 10° N 17:52:06 78° E 17:58:23 10° S
CZ-3B DEB 2.4 17:50:52 10° WSW 17:54:16 58° NW 18:02:20 11° NE
Cosmos 2218 Rocket 4.1 17:50:26 10° N 17:56:44 85° W 18:02:55 10° S
MSX 3.8 17:51:39 10° SSE 17:57:23 75° ENE 18:03:08 10° N
Delta 2 Rocket 4.3 17:54:58 10° SW 17:58:26 33° SSE 18:00:59 17° ESE
CZ-4 R/B 2.9 17:57:45 10° S 18:01:43 41° W 18:05:40 10° NNW
SMAP 3.7 17:58:01 10° S 18:02:36 59° W 18:07:12 10° NNW
Thor Agena Rocket 4.3 17:57:46 10° N 18:02:50 54° WNW 18:07:56 10° SSW
Cosmos 2278 Rocket 2.2 17:57:23 10° SSW 18:03:01 87° WNW 18:08:44 10° NNE
SL-24 DEB 4.2 18:00:53 10° N 18:05:39 77° E 18:10:20 10° S
Cosmos 1238 Rocket 3.4 18:03:39 10° SSW 18:06:28 40° W 18:09:19 10° N
OTV 4 2.8 18:05:45 10° WSW 18:08:07 21° SSW 18:10:28 10° SSE
CZ-2C R/B 3.3 18:04:02 10° S 18:08:50 53° W 18:13:49 10° NNW
MONITOR-E 4.2 18:08:37 10° S 18:11:48 83° WSW 18:15:00 10° NNW
Cosmos 1975 2.7 18:08:09 10° N 18:12:14 82° E 18:16:16 10° S
Meteor 1-12 Rocket 4.4 18:07:18 10° N 18:13:07 84° W 18:19:01 10° S
Cosmos 2251 Rocket 4.0 18:09:19 10° NNW 18:14:37 65° WSW 18:19:51 10° S
Genesis I 3.4 18:19:04 10° NNW 18:22:51 45° NE 18:23:18 43° ENE
NOAA 12 4.3 18:19:40 10° SE 18:24:41 46° ENE 18:29:42 10° N
Cosmos 1821 Rocket 4.2 18:21:07 10° N 18:26:54 43° ENE 18:32:38 10° SSE
Cosmos 1484 Rocket 2.9 18:24:14 10° S 18:27:59 70° W 18:31:43 10° NNW
TIMED 4.4 18:23:51 10° S 18:28:10 69° ESE 18:30:00 34° NNE
SL-8 R/B 4.3 18:24:15 10° W 18:28:50 47° NNW 18:30:50 29° NNE
Cosmos 2082 Rocket 2.4 18:24:57 10° N 18:30:22 45° ENE 18:33:41 22° SE
Meteor 1-13 Rocket 4.1 18:24:57 10° S 18:30:34 76° E 18:36:21 10° NNE
DMSP B5D1-3 4.4 18:25:46 10° NNE 18:30:57 83° ESE 18:36:04 10° SSW
Cosmos 1833 Rocket 3.0 18:26:41 10° N 18:31:59 40° ENE 18:33:05 36° E
METEOR-M 4.3 18:27:43 10° SE 18:32:48 47° ENE 18:37:53 10° N
Cosmos 1743 4.4 18:35:15 20° SSE 18:35:15 20° SSE 18:36:37 10° SSE
NOSS 2-1 (D) 3.3 18:29:37 10° SSW 18:33:19 53° ESE 18:33:30 52° ESE
Meteor 2-21 4.4 18:27:29 10° N 18:33:42 90° SSW 18:39:49 10° S
NOSS 2-1 (C) 3.4 18:30:19 10° SSW 18:34:01 52° ESE 18:34:09 52° ESE
COSMO-SKYMED 1 3.2 18:34:34 10° N 18:38:49 54° WNW 18:43:03 10° SSW
Cosmos 1500 4.1 18:38:37 10° NNW 18:42:19 49° W 18:46:02 10° SSW
Meteor 1-23 Rocket 4.4 18:37:13 10° SSE 18:42:40 47° E 18:43:21 44° ENE
Meteor 1-28 Rocket 3.3 18:45:30 47° N 18:46:29 73° WNW 18:50:15 10° SSW
Nadezhda 3 Rocket 4.2 18:41:27 10° SSW 18:47:35 72° W 18:53:51 10° N
NOSS 2-1 (E) 3.4 18:48:44 10° SSW 18:52:08 67° S 18:52:08 67° S
Timation 1 Rocket 4.2 18:46:48 10° SSW 18:52:44 89° WNW 18:55:27 35° NNE
Meteor 2-14 Rocket 4.4 18:49:32 10° N 18:55:43 82° W 19:01:50 10° S
GEOS 3 Rocket 3.5 18:53:31 29° SE 18:56:14 89° WSW 19:01:23 10° NW
Meteor 2-4 Rocket 3.4 18:52:07 10° S 18:57:30 74° E 18:58:30 58° NE
Tiangong 1 3.2 18:55:39 10° WSW 18:57:12 26° W 18:57:12 26° W
Cosmos 2056 Rocket 3.9 18:56:33 10° S 19:00:49 49° SE 19:00:49 49° SE
Cosmos 1025 Rocket 3.4 19:03:51 10° SSW 19:07:27 58° SW 19:07:27 58° SW
COSMOS 2487 4.3 19:09:27 10° NW 19:12:39 30° WSW 19:13:00 30° WSW
ATLAS 3B CENTAUR R/B 3.7 18:57:05 10° WSW 19:13:12 47° SSW 19:15:58 35° SE
Cosmos 921 Rocket 4.1 19:10:05 10° SW 19:14:04 40° WNW 19:14:35 39° NW
Cosmos 1624 Rocket 4.3 19:10:25 10° SSW 19:14:32 58° S 19:14:32 58° S
Cosmos 1371 Rocket 4.2 19:14:43 10° SSW 19:20:02 72° WNW 19:20:09 72° WNW
BREEZE M DEB (TANK) 4.1 19:17:09 10° NW 19:21:44 56° NE 19:21:54 56° NE
NOSS 3-4 (A) 4.1 19:16:28 10° NNW 19:21:59 48° NNE 19:21:59 48° NNE
NOSS 3-4 (C) 4.2 19:16:34 10° NNW 19:22:03 47° NNE 19:22:03 47° NNE
Cosmos 2082 Rocket 4.3 20:09:47 10° NW 20:14:05 23° W 20:15:50 20° SW
